Weather History for Sandberg, CA

Change the Weather History Date:

Friday, April 26, 2013

  Actual Average Record
Temperature  
Mean Temperature 68 °F 53 °F  
Max Temperature 83 °F 61 °F 83 °F (2013)
Min Temperature 52 °F 44 °F 26 °F (1975)
Degree Days  
Heating Degree Days 0 13  
Month to date heating degree days 223 398  
Since 1 July heating degree days 2892 3727  
Cooling Degree Days 3 0  
Month to date cooling degree days 16 0  
Year to date cooling degree days 27 1  
Growing Degree Days 17 (Base 50)    
Moisture  
Dew Point 35 °F    
Average Humidity 38    
Maximum Humidity 68    
Minimum Humidity 8    
Precipitation  
Precipitation 0.00 in 0.01 in 0.49 in (1960)
Month to date precipitation 0.01 0.57  
Year to date precipitation 2.53 7.95  
Since 1 July precipitation 3.90 11.80  
Sea Level Pressure  
Sea Level Pressure 30.09 in    
Wind  
Wind Speed 13 mph (NNW)    
Max Wind Speed 28 mph    
Max Gust Speed 37 mph    
Visibility 10 miles    
Events      
T = Trace of Precipitation, MM = Missing Value Source: NWS Daily Summary

Daily Weather History Graph

Daily Weather History Graph

Search for Another Location

Airport:

Trip Planner

Search our weather history database for the weather conditions in past years. The results will help you decide how hot, cold, wet, or windy it might be!

Date:

Astronomy

Apr. 26, 2013 Rise Set
Actual Time 6:09 AM PDT 7:36 PM PDT
Civil Twilight 5:42 AM PDT 8:02 PM PDT
Nautical Twilight 5:11 AM PDT 8:34 PM PDT
Astronomical Twilight 4:37 AM PDT 9:08 PM PDT
Moon 9:00 PM PDT (4/26) 6:43 AM PDT (4/26)
Length of Visible Light 14h 19m
Length of Day
13h 26m
Full, 99% of the Moon is Illuminated
Apr 26
Full
May 2
Last Quarter
May 9
New
May 17
First Quarter
May 24
Full

Hourly Weather History & Observations

Time (PDT) Temp. Dew Point Humidity Pressure Visibility Wind Dir Wind Speed Gust Speed Precip Events Conditions
12:48 AM 55.0 °F 37.9 °F 53% 30.06 in 10.0 mi Calm Calm - N/A   Clear
1:48 AM 54.0 °F 39.0 °F 57% 30.05 in 10.0 mi Calm Calm - N/A   Clear
2:48 AM 54.0 °F 37.9 °F 55% 30.04 in 10.0 mi Calm Calm - N/A   Clear
3:48 AM 53.1 °F 39.9 °F 61% 30.05 in 10.0 mi NW 16.1 mph - N/A   Clear
4:48 AM 53.1 °F 39.9 °F 61% 30.05 in 10.0 mi NNW 18.4 mph - N/A   Clear
5:48 AM 52.0 °F 41.0 °F 66% 30.06 in 10.0 mi North 15.0 mph - N/A   Clear
6:48 AM 54.0 °F 37.9 °F 55% 30.08 in 10.0 mi NNW 20.7 mph 28.8 mph N/A   Clear
7:48 AM 59.0 °F 37.0 °F 44% 30.11 in 10.0 mi North 16.1 mph - N/A   Clear
8:48 AM 64.0 °F 35.1 °F 34% 30.12 in 10.0 mi North 11.5 mph 17.3 mph N/A   Clear
9:48 AM 66.9 °F 34.0 °F 30% 30.12 in 10.0 mi NNW 9.2 mph - N/A   Clear
10:48 AM 71.1 °F 32.0 °F 24% 30.12 in 10.0 mi North 9.2 mph - N/A   Clear
11:48 AM 78.1 °F 19.9 °F 11% 30.12 in 10.0 mi ESE 15.0 mph 19.6 mph N/A   Clear
12:48 PM 79.0 °F 16.0 °F 9% 30.11 in 10.0 mi Variable 5.8 mph 19.6 mph N/A   Clear
1:48 PM 81.0 °F 14.0 °F 8% 30.09 in 10.0 mi East 13.8 mph 19.6 mph N/A   Clear
2:48 PM 79.0 °F 21.9 °F 12% 30.09 in 10.0 mi Variable 6.9 mph - N/A   Clear
4:48 PM 75.0 °F 39.9 °F 28% 30.09 in 10.0 mi NNW 8.1 mph - N/A   Clear
5:48 PM 69.8 °F 42.8 °F 38% 30.11 in 10.0 mi NNW 9.2 mph - N/A   Clear
6:48 PM 64.9 °F 45.0 °F 48% 30.13 in 10.0 mi NNW 12.7 mph - N/A   Clear
7:48 PM 61.0 °F 44.1 °F 54% 30.13 in 10.0 mi NNW 13.8 mph - N/A   Clear
8:48 PM 60.1 °F 43.0 °F 53% 30.14 in 10.0 mi NNW 18.4 mph 24.2 mph N/A   Clear
9:48 PM 62.1 °F 34.0 °F 35% 30.14 in 10.0 mi NNW 15.0 mph 24.2 mph N/A   Clear